Location: Unspecified
(0.0000°N, 0.0000°E)
Time: 05:05:16
(UTC+01:00)

Altair - All Passes

Search period start: 19 December 2014 00:00
Search period end: 29 December 2014 00:00
Orbit: 1501 x 1683 km, 47.2° (Epoch: 18 December)

Date Brightness Start Highest point End Pass type
(mag) Time Alt. Az. Time Alt. Az. Time Alt. Az.
19 Dec - 08:14:53 10° S 08:20:53 17° SE 08:26:44 10° E daylight
19 Dec - 10:15:59 10° SW 10:26:00 86° SE 10:35:35 10° NE daylight
19 Dec - 12:24:34 10° W 12:30:44 19° NW 12:36:49 10° N daylight
19 Dec - 21:01:59 10° NNW 21:10:16 36° NE 21:18:47 10° ESE visible
19 Dec - 23:05:54 10° WNW 23:14:46 47° SW 23:24:03 10° SSE visible
20 Dec - 07:50:27 10° SSE 07:55:36 15° SE 08:00:39 10° ESE daylight
20 Dec - 09:50:50 10° SW 10:00:51 78° SE 10:10:26 10° NE daylight
20 Dec - 11:58:40 10° W 12:05:32 21° NW 12:12:16 10° N daylight
20 Dec - 20:37:09 10° N 20:45:07 32° NE 20:53:16 10° ESE visible
20 Dec - 22:40:36 10° NW 22:49:37 53° SW 22:59:02 10° SSE visible
21 Dec - 07:26:15 10° SSE 07:30:18 13° SE 07:34:17 10° ESE daylight
21 Dec - 09:25:42 10° SSW 09:35:41 70° SE 09:45:16 10° NE daylight
21 Dec - 11:32:53 10° W 11:40:20 24° NW 11:47:37 10° N daylight
21 Dec - 20:12:22 10° N 20:19:57 28° NE 20:27:42 10° ESE visible
21 Dec - 22:15:21 10° NW 22:24:28 59° SW 22:33:59 10° SSE visible
22 Dec - 07:02:37 10° SSE 07:04:59 11° SE 07:07:19 10° ESE daylight
22 Dec - 09:00:36 10° SSW 09:10:31 63° SE 09:20:03 10° NE daylight
22 Dec - 11:07:11 10° WSW 11:15:09 28° NW 11:22:54 10° N daylight
22 Dec - 19:47:39 10° N 19:54:47 25° NE 20:02:03 10° E visible
22 Dec - 21:50:08 10° NW 21:59:20 66° SW 22:08:55 10° SSE visible
23 Dec - 00:02:05 10° WSW 00:04:43 11° SW 00:07:22 10° SSW visible
23 Dec - 08:35:32 10° SSW 08:45:21 57° SE 08:54:48 10° NE daylight
23 Dec - 10:41:34 10° WSW 10:49:58 32° NW 10:58:08 10° N daylight
23 Dec - 19:22:59 10° N 19:29:37 22° NE 19:36:20 10° E visible
23 Dec - 21:24:58 10° NW 21:34:12 74° SW 21:43:49 10° SSE visible
23 Dec - 23:35:22 10° WSW 23:39:25 13° SW 23:43:33 10° SSW visible
24 Dec - 08:10:30 10° SSW 08:20:11 51° SE 08:29:30 10° ENE daylight
24 Dec - 10:16:01 10° WSW 10:24:47 36° NW 10:33:18 10° NNE daylight
24 Dec - 18:58:25 10° N 19:04:25 19° NE 19:10:30 10° E daylight
24 Dec - 20:59:49 10° NW 21:09:04 82° SW 21:18:42 10° SE visible
24 Dec - 23:09:07 10° WSW 23:14:09 15° SW 23:19:18 10° SSW visible
25 Dec - 07:45:30 10° SSW 07:55:00 45° SE 08:04:10 10° ENE daylight
25 Dec - 09:50:32 10° WSW 09:59:37 40° NW 10:08:26 10° NNE daylight
25 Dec - 18:33:57 10° N 18:39:13 16° NE 18:44:32 10° E daylight
25 Dec - 20:34:42 10° NW 20:43:57 89° NE 20:53:32 10° SE visible
25 Dec - 22:43:07 10° W 22:48:54 18° SW 22:54:49 10° S visible
26 Dec - 07:20:31 10° SSW 07:29:48 41° SE 07:38:47 10° ENE daylight
26 Dec - 09:25:05 10° WSW 09:34:27 45° NW 09:43:32 10° NNE daylight
26 Dec - 18:09:41 10° NNE 18:14:00 14° NE 18:18:21 10° ENE daylight
26 Dec - 20:09:37 10° NW 20:18:49 81° NE 20:28:22 10° SE visible
26 Dec - 22:17:17 10° W 22:23:39 20° SW 22:30:13 10° S visible
27 Dec - 06:55:35 10° SSW 07:04:36 36° SE 07:13:21 10° ENE daylight
27 Dec - 08:59:41 10° WSW 09:09:17 51° NW 09:18:35 10° NNE daylight
27 Dec - 17:45:46 10° NNE 17:48:46 12° NE 17:51:46 10° ENE daylight
27 Dec - 19:44:33 10° NNW 19:53:42 72° NE 20:03:09 10° SE visible
27 Dec - 21:51:34 10° W 21:58:26 23° SW 22:05:32 10° S visible
28 Dec - 06:30:41 10° S 06:39:23 32° SE 06:47:52 10° ENE visible
28 Dec - 08:34:20 10° SW 08:44:07 57° NW 08:53:37 10° NNE daylight
28 Dec - 19:19:32 10° NNW 19:28:35 65° NE 19:37:54 10° SE visible
28 Dec - 21:25:56 10° W 21:33:14 26° SW 21:40:47 10° S visible
